Stations météo

réclame
Mon MeteoGroup
Kleine Brogel, Belgique (6479): Température de l'air & dewpoint: 03.04.2020 11:00:00 - 09.04.2020 11:00:00 (CEST)Kleine Brogel, Belgique (6479): Vitesse du vent & gusts: 03.04.2020 11:00:00 - 09.04.2020 11:00:00 (CEST)Kleine Brogel, Belgique (6479): Direction du vent: 03.04.2020 11:00:00 - 09.04.2020 11:00:00 (CEST)Kleine Brogel, Belgique (6479): reduced air pressure: 03.04.2020 11:00:00 - 09.04.2020 11:00:00 (CEST)Kleine Brogel, Belgique (6479): visibility: 03.04.2020 11:00:00 - 09.04.2020 11:00:00 (CEST)
Date & Time tt [°C] td [°C] ff [km/h] ff [knt] fx [km/h] fx [knt] dd ppp [hPa] vv [km]
09.04.2020 11:00:00 17,5 7,4 7 4 - - ENE 1025,7 15
09.04.2020 10:00:00 15,6 7,7 11 6 11 6 NE 1025,5 12
09.04.2020 09:00:00 12,7 7,7 7 4 11 6 NNE 1025,0 12
09.04.2020 08:00:00 9,1 7,4 5 3 - - - 1024,7 10
09.04.2020 07:00:00 8,8 7,7 4 2 4 2 - 1024,2 6
09.04.2020 06:00:00 8,1 7,2 2 1 4 2 - 1023,7 4,9
09.04.2020 05:00:00 8,4 7,0 4 2 - - N 1023,3 5
09.04.2020 04:00:00 8,8 6,4 2 1 4 2 - 1023,2 7
09.04.2020 03:00:00 10,4 6,3 4 2 7 4 N 1023,5 10
09.04.2020 02:00:00 11,1 6,1 4 2 - - N 1023,7 13
09.04.2020 01:00:00 10,7 6,2 4 2 7 4 N 1023,6 19
09.04.2020 00:00:00 12,6 6,4 4 2 4 2 N 1023,3 20
08.04.2020 23:00:00 13,3 6,9 4 2 - - N 1023,2 20
08.04.2020 22:00:00 15,1 6,2 4 2 0 0 N 1023,2 20
08.04.2020 21:00:00 16,7 5,8 4 2 0 0 N 1022,8 20
08.04.2020 20:00:00 21,1 6,7 4 2 - - N 1022,6 20
08.04.2020 19:00:00 22,5 4,6 4 2 7 4 N 1022,5 20
08.04.2020 18:00:00 23,2 4,6 4 2 11 6 N 1022,6 20
08.04.2020 17:00:00 23,2 3,5 7 4 - - WSW 1022,8 20
08.04.2020 16:00:00 24,6 4,6 7 4 22 12 N 1023,2 20
08.04.2020 15:00:00 23,5 3,7 7 4 18 10 E 1023,7 20
08.04.2020 14:00:00 23,8 3,9 4 2 - - N 1024,0 20
08.04.2020 13:00:00 22,9 3,8 4 2 11 6 N 1024,5 20
08.04.2020 12:00:00 21,1 6,5 4 2 4 2 N 1025,2 19
08.04.2020 11:00:00 16,5 8,3 4 2 - - N 1025,7 15
08.04.2020 10:00:00 13,8 8,9 4 2 4 2 N 1025,7 10
08.04.2020 09:00:00 11,9 8,3 4 2 4 2 N 1026,0 11
08.04.2020 08:00:00 7,3 6,3 4 2 - - N 1026,0 4,6
08.04.2020 07:00:00 6,4 5,8 4 2 0 0 N 1025,9 4,1
08.04.2020 06:00:00 6,5 5,6 2 1 0 0 - 1026,0 3,5
08.04.2020 05:00:00 7,1 5,9 4 2 - - N 1026,4 4,3
08.04.2020 04:00:00 7,9 6,5 0 0 4 2 N 1026,7 6
08.04.2020 03:00:00 8,5 6,4 4 2 4 2 N 1027,0 7
08.04.2020 02:00:00 9,3 6,6 4 2 - - N 1027,7 10
08.04.2020 01:00:00 10,7 6,7 4 2 4 2 N 1027,9 12
08.04.2020 00:00:00 12,9 7,1 4 2 7 4 N 1027,9 11
07.04.2020 23:00:00 13,1 6,9 4 2 - - N 1028,4 14
07.04.2020 22:00:00 13,3 6,9 7 4 7 4 ENE 1028,5 15
07.04.2020 21:00:00 15,3 7,2 7 4 11 6 ENE 1028,4 15
07.04.2020 20:00:00 17,1 7,4 7 4 - - ENE 1028,0 15
07.04.2020 19:00:00 19,2 7,6 14 8 22 12 ENE 1028,2 14
07.04.2020 18:00:00 20,0 7,1 7 4 18 10 ENE 1028,7 19
07.04.2020 17:00:00 20,3 7,2 11 6 - - E 1029,0 19
07.04.2020 16:00:00 19,8 6,9 7 4 22 12 E 1029,5 19
07.04.2020 15:00:00 19,0 6,8 7 4 22 12 E 1030,2 17
07.04.2020 14:00:00 18,1 6,3 7 4 - - ENE 1030,7 16
07.04.2020 13:00:00 17,1 7,6 11 6 18 10 NE 1031,5 20
07.04.2020 12:00:00 16,3 7,0 7 4 18 10 E 1031,9 19
07.04.2020 11:00:00 15,1 8,3 7 4 - - E 1032,0 -
07.04.2020 10:00:00 13,1 7,8 7 4 14 8 ENE 1032,0 16
07.04.2020 09:00:00 10,9 8,6 4 2 4 2 N 1031,5 10
07.04.2020 08:00:00 6,3 6,2 0 0 - - N 1031,0 3,6
07.04.2020 07:00:00 6,0 5,8 0 0 0 0 N 1030,4 3,1
07.04.2020 06:00:00 7,1 6,5 2 1 0 0 - 1029,9 9
07.04.2020 05:00:00 9,1 7,7 4 2 - - N 1029,5 9
07.04.2020 04:00:00 10,6 8,2 7 4 7 4 W 1028,9 17
07.04.2020 03:00:00 12,3 8,9 4 2 11 6 N 1028,7 19
07.04.2020 02:00:00 12,9 8,9 4 2 - - N 1028,0 20
07.04.2020 01:00:00 13,6 8,9 7 4 22 12 W 1027,5 20
07.04.2020 00:00:00 14,1 8,7 11 6 22 12 W 1026,5 20
06.04.2020 23:00:00 14,6 8,6 11 6 - - W 1026,0 20
06.04.2020 22:00:00 14,8 8,4 11 6 25 14 W 1025,2 20
06.04.2020 21:00:00 15,8 6,9 11 6 32 18 W 1024,2 20
06.04.2020 20:00:00 17,5 5,4 18 10 - - W 1022,8 20
06.04.2020 19:00:00 20,5 2,9 22 12 40 21 WSW 1021,5 20
06.04.2020 18:00:00 22,1 1,6 22 12 36 19 SW 1020,7 20
06.04.2020 17:00:00 22,6 1,5 22 12 - - SSW 1020,2 20
06.04.2020 16:00:00 23,1 2,2 25 14 40 21 SW 1019,8 20
06.04.2020 15:00:00 22,7 2,0 18 10 32 18 SSW 1019,7 20
06.04.2020 14:00:00 21,5 2,4 14 8 - - SSW 1019,3 19
06.04.2020 13:00:00 20,4 2,7 18 10 32 18 SSW 1019,1 20
06.04.2020 12:00:00 19,2 2,6 14 8 29 16 S 1019,0 20
06.04.2020 11:00:00 17,5 1,9 18 10 - - SSW 1018,6 20
06.04.2020 10:00:00 16,1 1,7 22 12 32 18 SSW 1018,2 20
06.04.2020 09:00:00 14,3 1,3 11 6 22 12 S 1017,7 20
06.04.2020 08:00:00 11,9 1,0 7 4 - - S 1017,3 20
06.04.2020 07:00:00 10,1 0,4 7 4 14 8 S 1016,8 20
06.04.2020 06:00:00 10,9 0,2 7 4 14 8 N 1016,7 20
06.04.2020 05:00:00 11,4 0,1 4 2 - - N 1016,7 20
06.04.2020 04:00:00 11,6 0,3 4 2 7 4 N 1016,8 20
06.04.2020 03:00:00 9,3 0,0 4 2 7 4 N 1017,1 20
06.04.2020 02:00:00 11,1 -0,1 4 2 - - N 1017,1 20
06.04.2020 01:00:00 11,5 -0,3 4 2 11 6 N 1017,2 20
06.04.2020 00:00:00 13,2 -0,2 4 2 11 6 N 1017,1 20
05.04.2020 23:00:00 13,4 0,4 4 2 - - N 1017,2 20
05.04.2020 22:00:00 14,0 1,2 4 2 14 8 N 1017,6 20
05.04.2020 21:00:00 15,8 1,1 4 2 18 10 N 1017,2 20
05.04.2020 20:00:00 18,3 0,6 7 4 - - E 1017,0 20
05.04.2020 19:00:00 20,5 0,2 11 6 22 12 SE 1016,8 20
05.04.2020 18:00:00 21,2 0,0 7 4 29 16 SE 1017,2 20
05.04.2020 17:00:00 21,4 -0,9 11 6 - - SE 1017,7 20
05.04.2020 16:00:00 21,1 -2,0 11 6 32 18 SE 1018,5 20
05.04.2020 15:00:00 20,2 -1,4 14 8 29 16 SE 1019,1 20
05.04.2020 14:00:00 19,7 1,7 14 8 - - E 1019,7 20
05.04.2020 13:00:00 17,7 2,0 14 8 25 14 E 1020,7 20
05.04.2020 12:00:00 16,2 1,7 11 6 22 12 ESE 1021,6 20
05.04.2020 11:00:00 14,1 1,8 11 6 - - E 1022,2 20
05.04.2020 10:00:00 11,2 1,1 7 4 18 10 E 1022,5 20
05.04.2020 09:00:00 8,3 0,8 7 4 14 8 E 1022,8 18
05.04.2020 08:00:00 5,7 0,0 7 4 - - E 1022,8 20
05.04.2020 07:00:00 5,0 -0,4 4 2 14 8 N 1022,5 18
05.04.2020 06:00:00 5,0 -0,4 7 4 14 8 N 1022,6 19
05.04.2020 05:00:00 4,9 -0,7 4 2 - - N 1022,7 19
05.04.2020 04:00:00 4,6 -0,8 4 2 7 4 N 1023,0 18
05.04.2020 03:00:00 5,2 -1,2 4 2 7 4 N 1023,1 19
05.04.2020 02:00:00 4,4 -1,6 4 2 - - N 1023,6 20
05.04.2020 01:00:00 6,9 -2,2 4 2 7 4 N 1023,7 20
05.04.2020 00:00:00 7,2 -2,8 4 2 11 6 N 1023,5 20
04.04.2020 23:00:00 5,2 -2,7 4 2 - - N 1023,5 20
04.04.2020 22:00:00 7,0 -2,4 4 2 4 2 N 1023,8 20
04.04.2020 21:00:00 10,0 -2,7 4 2 11 6 N 1023,7 20
04.04.2020 20:00:00 12,6 -2,8 7 4 - - E 1023,2 20
04.04.2020 19:00:00 13,6 -1,8 7 4 22 12 E 1023,0 20
04.04.2020 18:00:00 14,1 -1,3 14 8 22 12 ENE 1023,0 20
04.04.2020 17:00:00 14,4 -1,0 11 6 - - E 1023,2 20
04.04.2020 16:00:00 14,9 -0,6 11 6 22 12 E 1023,5 20
04.04.2020 15:00:00 13,8 -1,6 7 4 18 10 N 1024,0 20
04.04.2020 14:00:00 13,7 -1,1 4 2 - - N 1024,2 19
04.04.2020 13:00:00 12,5 -2,1 4 2 18 10 N 1024,7 20
04.04.2020 12:00:00 11,4 -2,6 7 4 18 10 SE 1025,2 19
04.04.2020 11:00:00 10,3 -3,7 11 6 - - ESE 1025,2 20
04.04.2020 10:00:00 8,9 -3,1 11 6 18 10 SSE 1024,9 20
04.04.2020 09:00:00 5,1 -0,8 4 2 7 4 N 1024,7 20
04.04.2020 08:00:00 -0,6 -3,0 4 2 - - N 1024,2 20
04.04.2020 07:00:00 -2,2 -4,0 4 2 0 0 N 1023,8 20
04.04.2020 06:00:00 -1,8 -3,6 0 0 4 2 N 1023,5 20
04.04.2020 05:00:00 -2,2 -4,3 4 2 - - N 1023,3 20
04.04.2020 04:00:00 -0,8 -3,7 4 2 0 0 N 1023,2 20
04.04.2020 03:00:00 -0,5 -3,2 4 2 4 2 N 1022,8 20
04.04.2020 02:00:00 -0,1 -3,2 4 2 - - N 1022,6 20
04.04.2020 01:00:00 0,1 -3,2 4 2 7 4 N 1022,5 20
04.04.2020 00:00:00 0,8 -3,2 4 2 0 0 N 1022,2 20
03.04.2020 23:00:00 2,0 -3,0 0 0 - - N 1021,8 20
03.04.2020 22:00:00 3,8 -3,1 4 2 4 2 N 1021,5 20
03.04.2020 21:00:00 5,4 -3,0 4 2 11 6 N 1020,8 20
03.04.2020 20:00:00 7,9 -3,3 7 4 - - WNW 1020,1 20
03.04.2020 19:00:00 9,3 -2,8 11 6 32 18 WNW 1019,5 20
03.04.2020 18:00:00 10,3 -2,4 14 8 36 19 WNW 1018,7 20
03.04.2020 17:00:00 11,2 -2,2 14 8 - - WNW 1018,3 20
03.04.2020 16:00:00 9,8 -1,3 11 6 40 21 W 1018,3 20
03.04.2020 15:00:00 10,0 -1,4 14 8 32 18 W 1018,1 20
03.04.2020 14:00:00 10,4 -0,4 18 10 - - W 1017,7 20
03.04.2020 13:00:00 9,8 1,6 14 8 32 18 W 1017,3 20
03.04.2020 12:00:00 9,9 3,2 18 10 29 16 W 1016,8 20
03.04.2020 11:00:00 9,2 3,6 15 8 - - W 1016,3 10

tt = Température de l'air
td = dewpoint
ff = Vitesse du vent
fx = gusts
dd = Direction du vent
ppp = reduced air pressure
vv = visibility

stations d'obs. à proximité